status,avgMeasuredTime,avgSpeed,extID,medianMeasuredTime,TIMESTAMP,vehicleCount,_id,REPORT_ID
OK,128,21,1022,128,2014-08-01T08:00:00,2,20747077,209801
OK,103,27,1022,103,2014-08-01T08:10:00,4,20747899,209801
OK,92,30,1022,92,2014-08-01T08:15:00,2,20748348,209801
OK,99,28,1022,99,2014-08-01T08:20:00,4,20748797,209801
OK,99,28,1022,99,2014-08-01T08:25:00,4,20749246,209801
OK,75,37,1022,75,2014-08-01T08:30:00,6,20749695,209801
OK,112,24,1022,112,2014-08-01T08:40:00,6,20750593,209801
OK,75,37,1022,75,2014-08-01T08:50:00,2,20751491,209801
OK,128,21,1022,128,2014-08-01T09:00:00,2,20752389,209801
OK,107,26,1022,107,2014-08-01T09:05:00,5,20752838,209801
OK,106,26,1022,106,2014-08-01T09:10:00,4,20753287,209801
OK,82,33,1022,82,2014-08-01T09:20:00,3,20754185,209801
OK,79,35,1022,79,2014-08-01T09:25:00,4,20754634,209801
OK,92,30,1022,92,2014-08-01T09:30:00,3,20755083,209801
OK,83,33,1022,83,2014-08-01T09:35:00,2,20755532,209801
OK,124,22,1022,124,2014-08-01T09:40:00,3,20755981,209801
OK,124,22,1022,124,2014-08-01T09:45:00,3,20756430,209801
OK,95,29,1022,95,2014-08-01T09:50:00,2,20756879,209801
OK,103,27,1022,103,2014-08-01T09:55:00,2,20757328,209801
OK,97,28,1022,97,2014-08-01T10:00:00,4,20757777,209801
OK,100,27,1022,100,2014-08-01T10:15:00,3,20759124,209801
OK,153,18,1022,153,2014-08-01T10:20:00,1,20759573,209801
OK,122,22,1022,122,2014-08-01T10:25:00,3,20760022,209801
OK,117,23,1022,117,2014-08-01T10:30:00,2,20760471,209801
OK,89,31,1022,89,2014-08-01T10:40:00,4,20761369,209801
OK,103,27,1022,103,2014-08-01T10:50:00,8,20762267,209801
OK,96,28,1022,96,2014-08-01T11:00:00,4,20763165,209801
OK,85,32,1022,85,2014-08-01T11:20:00,1,20764960,209801
OK,133,20,1022,133,2014-08-01T11:25:00,2,20765409,209801
OK,114,24,1022,114,2014-08-01T11:30:00,4,20765858,209801
OK,74,37,1022,74,2014-08-01T11:35:00,4,20766307,209801
OK,89,31,1022,89,2014-08-01T11:40:00,5,20766756,209801
OK,109,25,1022,109,2014-08-01T11:45:00,3,20767205,209801
OK,91,30,1022,91,2014-08-01T11:50:00,3,20767654,209801
OK,102,27,1022,102,2014-08-01T11:55:00,8,20768103,209801
OK,97,28,1022,97,2014-08-01T12:00:00,7,20768552,209801
OK,109,25,1022,109,2014-08-01T12:10:00,5,20769450,209801
OK,83,33,1022,83,2014-08-01T12:20:00,2,20770348,209801
OK,67,41,1022,67,2014-08-01T12:25:00,3,20770797,209801
OK,76,36,1022,76,2014-08-01T12:30:00,5,20771246,209801
OK,92,30,1022,92,2014-08-01T12:35:00,5,20771695,209801
OK,101,27,1022,101,2014-08-01T12:40:00,2,20772144,209801
OK,95,29,1022,95,2014-08-01T12:45:00,2,20772593,209801
OK,80,34,1022,80,2014-08-01T12:50:00,3,20773042,209801
OK,89,31,1022,89,2014-08-01T12:55:00,4,20773491,209801
OK,88,31,1022,88,2014-08-01T13:00:00,5,20773940,209801
OK,88,31,1022,88,2014-08-01T13:05:00,3,20774389,209801
OK,88,31,1022,88,2014-08-01T13:10:00,2,20774838,209801
OK,90,30,1022,90,2014-08-01T13:15:00,4,20775287,209801
OK,90,30,1022,90,2014-08-01T13:20:00,9,20775736,209801
OK,104,26,1022,104,2014-08-01T13:25:00,13,20776185,209801
OK,102,27,1022,102,2014-08-01T13:30:00,10,20776634,209801
OK,97,28,1022,97,2014-08-01T13:35:00,5,20777083,209801
OK,97,28,1022,97,2014-08-01T13:40:00,7,20777532,209801
OK,97,28,1022,97,2014-08-01T13:45:00,7,20777981,209801
OK,101,27,1022,101,2014-08-01T13:50:00,4,20778430,209801
OK,128,21,1022,128,2014-08-01T14:00:00,1,20779328,209801
OK,107,26,1022,107,2014-08-01T14:05:00,4,20779777,209801
OK,105,26,1022,105,2014-08-01T14:10:00,3,20780226,209801
OK,73,38,1022,73,2014-08-01T14:15:00,2,20780675,209801
OK,74,37,1022,74,2014-08-01T14:20:00,3,20781124,209801
OK,89,31,1022,89,2014-08-01T14:25:00,1,20781573,209801
OK,89,31,1022,89,2014-08-01T14:30:00,0,20782022,209801
OK,89,31,1022,89,2014-08-01T14:35:00,0,20782471,209801
OK,120,23,1022,120,2014-08-01T14:40:00,2,20782920,209801
OK,120,23,1022,120,2014-08-01T14:45:00,2,20783369,209801
OK,109,25,1022,109,2014-08-01T14:50:00,2,20783818,209801
OK,68,40,1022,68,2014-08-01T15:00:00,2,20784716,209801
OK,105,26,1022,105,2014-08-01T15:05:00,1,20785165,209801
OK,111,25,1022,111,2014-08-01T15:10:00,2,20785614,209801
OK,117,23,1022,117,2014-08-01T15:15:00,0,20786063,209801
OK,124,22,1022,124,2014-08-01T15:20:00,1,20786512,209801
OK,124,22,1022,124,2014-08-01T15:25:00,1,20786961,209801
OK,89,31,1022,89,2014-08-01T15:30:00,3,20787410,209801
OK,88,31,1022,88,2014-08-01T15:35:00,4,20787859,209801
OK,87,31,1022,87,2014-08-01T15:40:00,1,20788308,209801
OK,87,31,1022,87,2014-08-01T15:45:00,0,20788757,209801
OK,80,34,1022,80,2014-08-01T15:50:00,1,20789206,209801
OK,84,33,1022,84,2014-08-01T15:55:00,2,20789655,209801
OK,89,31,1022,89,2014-08-01T16:00:00,1,20790104,209801
OK,100,27,1022,100,2014-08-01T16:05:00,1,20790553,209801
OK,100,27,1022,100,2014-08-01T16:10:00,1,20791002,209801
OK,97,28,1022,97,2014-08-01T16:15:00,3,20791451,209801
OK,94,29,1022,94,2014-08-01T16:20:00,3,20791900,209801
OK,58,47,1022,58,2014-08-01T16:25:00,1,20792349,209801
OK,58,47,1022,58,2014-08-01T16:30:00,0,20792798,209801
OK,108,25,1022,108,2014-08-01T16:35:00,1,20793247,209801
OK,108,25,1022,108,2014-08-01T16:40:00,0,20793696,209801
OK,104,26,1022,104,2014-08-01T16:45:00,1,20794145,209801
OK,88,31,1022,88,2014-08-01T16:50:00,2,20794594,209801
OK,73,38,1022,73,2014-08-01T16:55:00,0,20795043,209801
OK,76,36,1022,76,2014-08-01T17:00:00,2,20795492,209801
OK,85,32,1022,85,2014-08-01T17:05:00,3,20795941,209801
OK,136,20,1022,136,2014-08-01T17:10:00,1,20796390,209801
OK,136,20,1022,136,2014-08-01T17:15:00,0,20796839,209801
OK,68,40,1022,68,2014-08-01T17:20:00,1,20797288,209801
OK,73,38,1022,73,2014-08-01T17:25:00,2,20797737,209801
OK,78,35,1022,78,2014-08-01T17:30:00,1,20798186,209801
OK,136,20,1022,136,2014-08-01T17:35:00,1,20798635,209801
OK,105,26,1022,105,2014-08-01T17:40:00,2,20799084,209801
OK,74,37,1022,74,2014-08-01T17:45:00,1,20799533,209801
OK,74,37,1022,74,2014-08-01T17:50:00,0,20799982,209801
OK,74,37,1022,74,2014-08-01T17:55:00,0,20800431,209801
OK,74,37,1022,74,2014-08-01T18:00:00,0,20800880,209801
OK,74,37,1022,74,2014-08-01T18:05:00,0,20801329,209801
OK,74,37,1022,74,2014-08-01T18:10:00,0,20801778,209801
OK,74,37,1022,74,2014-08-01T18:15:00,0,20802227,209801
OK,74,37,1022,74,2014-08-01T18:20:00,0,20802676,209801
OK,99,28,1022,99,2014-08-01T18:25:00,1,20803125,209801
OK,108,25,1022,108,2014-08-01T18:30:00,2,20803574,209801
OK,118,23,1022,118,2014-08-01T18:35:00,1,20804023,209801
OK,118,23,1022,118,2014-08-01T18:40:00,0,20804472,209801
OK,118,23,1022,118,2014-08-01T18:45:00,0,20804921,209801
OK,118,23,1022,118,2014-08-01T18:50:00,0,20805370,209801
OK,72,38,1022,72,2014-08-01T18:55:00,1,20805819,209801
OK,72,38,1022,72,2014-08-01T19:00:00,1,20806268,209801
OK,64,43,1022,64,2014-08-01T19:05:00,1,20806717,209801
OK,64,43,1022,64,2014-08-01T19:10:00,0,20807166,209801
OK,64,43,1022,64,2014-08-01T19:15:00,0,20807615,209801
OK,64,43,1022,64,2014-08-01T19:20:00,0,20808064,209801
OK,64,43,1022,64,2014-08-01T19:25:00,0,20808513,209801
OK,116,23,1022,116,2014-08-01T19:30:00,1,20808962,209801
OK,116,23,1022,116,2014-08-01T19:35:00,1,20809411,209801
OK,116,23,1022,116,2014-08-01T19:40:00,0,20809860,209801
OK,116,23,1022,116,2014-08-01T19:45:00,0,20810309,209801
OK,105,26,1022,105,2014-08-01T19:50:00,1,20810758,209801
OK,105,26,1022,105,2014-08-01T19:55:00,3,20811207,209801
OK,101,27,1022,101,2014-08-01T22:00:00,0,20816936,209801
OK,135,20,1022,135,2014-08-02T00:00:00,0,20823375,209801
OK,135,20,1022,135,2014-08-02T00:05:00,0,20823824,209801
OK,135,20,1022,135,2014-08-02T00:10:00,0,20824273,209801
OK,135,20,1022,135,2014-08-02T00:15:00,0,20824722,209801
OK,135,20,1022,135,2014-08-02T00:20:00,0,20825171,209801
OK,135,20,1022,135,2014-08-02T00:25:00,0,20825620,209801
OK,135,20,1022,135,2014-08-02T00:30:00,0,20826069,209801
OK,135,20,1022,135,2014-08-02T00:35:00,0,20826518,209801
OK,135,20,1022,135,2014-08-02T00:40:00,0,20826967,209801
OK,96,28,1022,96,2014-08-02T00:45:00,1,20827416,209801
OK,96,28,1022,96,2014-08-02T00:50:00,1,20827865,209801
OK,96,28,1022,96,2014-08-02T00:55:00,0,20828314,209801
OK,96,28,1022,96,2014-08-02T01:00:00,0,20828763,209801
OK,96,28,1022,96,2014-08-02T01:05:00,0,20829212,209801
OK,96,28,1022,96,2014-08-02T01:10:00,0,20829661,209801
OK,96,28,1022,96,2014-08-02T01:15:00,0,20830110,209801
OK,68,40,1022,68,2014-08-02T01:20:00,1,20830559,209801
OK,117,23,1022,117,2014-08-02T01:25:00,1,20831008,209801
OK,117,23,1022,117,2014-08-02T01:30:00,0,20831457,209801
OK,117,23,1022,117,2014-08-02T01:35:00,0,20831906,209801
OK,117,23,1022,117,2014-08-02T01:40:00,0,20832355,209801
OK,117,23,1022,117,2014-08-02T01:45:00,0,20832804,209801
OK,117,23,1022,117,2014-08-02T01:50:00,0,20833253,209801
OK,117,23,1022,117,2014-08-02T01:55:00,0,20833702,209801
OK,117,23,1022,117,2014-08-02T02:00:00,0,20834151,209801
OK,117,23,1022,117,2014-08-02T02:05:00,0,20834600,209801
OK,117,23,1022,117,2014-08-02T02:10:00,0,20835049,209801
OK,117,23,1022,117,2014-08-02T02:15:00,0,20835498,209801
OK,117,23,1022,117,2014-08-02T02:20:00,0,20835947,209801
OK,117,23,1022,117,2014-08-02T02:25:00,0,20836396,209801
OK,117,23,1022,117,2014-08-02T02:30:00,0,20836845,209801
OK,117,23,1022,117,2014-08-02T02:35:00,0,20837294,209801
OK,117,23,1022,117,2014-08-02T02:40:00,0,20837743,209801
OK,117,23,1022,117,2014-08-02T02:45:00,0,20838192,209801
OK,117,23,1022,117,2014-08-02T02:50:00,0,20838641,209801
OK,117,23,1022,117,2014-08-02T02:55:00,0,20839090,209801
OK,117,23,1022,117,2014-08-02T03:00:00,0,20839539,209801
OK,117,23,1022,117,2014-08-02T03:05:00,0,20839988,209801
OK,59,47,1022,59,2014-08-02T03:10:00,1,20840437,209801
OK,59,47,1022,59,2014-08-02T03:15:00,1,20840886,209801
OK,59,47,1022,59,2014-08-02T03:20:00,0,20841335,209801
OK,59,47,1022,59,2014-08-02T03:25:00,0,20841784,209801
OK,59,47,1022,59,2014-08-02T03:30:00,0,20842233,209801
OK,59,47,1022,59,2014-08-02T03:35:00,0,20842682,209801
OK,59,47,1022,59,2014-08-02T03:40:00,0,20843131,209801
OK,59,47,1022,59,2014-08-02T03:45:00,0,20843580,209801
OK,59,47,1022,59,2014-08-02T03:50:00,0,20844029,209801
OK,59,47,1022,59,2014-08-02T03:55:00,0,20844478,209801
OK,59,47,1022,59,2014-08-02T06:00:00,0,20851932,209801
OK,73,38,1022,73,2014-08-02T06:05:00,0,20852381,209801
OK,73,38,1022,73,2014-08-02T06:10:00,0,20852830,209801
OK,103,27,1022,103,2014-08-02T06:15:00,1,20853279,209801
OK,103,27,1022,103,2014-08-02T06:20:00,0,20853728,209801
OK,103,27,1022,103,2014-08-02T06:25:00,0,20854177,209801
OK,103,27,1022,103,2014-08-02T06:30:00,0,20854626,209801
OK,103,27,1022,103,2014-08-02T06:35:00,0,20855075,209801
OK,88,31,1022,88,2014-08-02T06:40:00,1,20855524,209801
OK,100,27,1022,100,2014-08-02T06:45:00,3,20855973,209801
OK,100,27,1022,100,2014-08-02T06:50:00,3,20856422,209801
OK,80,34,1022,80,2014-08-02T06:55:00,1,20856871,209801
OK,80,34,1022,80,2014-08-02T07:00:00,0,20857320,209801
OK,80,34,1022,80,2014-08-02T07:05:00,0,20857769,209801
OK,80,34,1022,80,2014-08-02T07:10:00,0,20858218,209801
OK,101,27,1022,101,2014-08-02T07:15:00,0,20858667,209801
OK,83,33,1022,83,2014-08-02T07:20:00,2,20859116,209801
OK,83,33,1022,83,2014-08-02T07:25:00,2,20859565,209801
OK,70,39,1022,70,2014-08-02T07:30:00,0,20860014,209801
OK,76,36,1022,76,2014-08-02T07:35:00,1,20860463,209801
OK,79,35,1022,79,2014-08-02T07:40:00,2,20860912,209801
OK,103,27,1022,103,2014-08-02T07:45:00,3,20861361,209801
OK,103,27,1022,103,2014-08-02T07:50:00,2,20861810,209801
OK,90,30,1022,90,2014-08-02T07:55:00,1,20862259,209801
OK,106,26,1022,106,2014-08-02T08:00:00,5,20862708,209801
OK,99,28,1022,99,2014-08-02T08:05:00,6,20863157,209801
OK,65,42,1022,65,2014-08-02T08:10:00,1,20863606,209801
OK,98,28,1022,98,2014-08-02T08:15:00,1,20864055,209801
OK,98,28,1022,98,2014-08-02T08:20:00,1,20864504,209801
OK,73,38,1022,73,2014-08-02T08:25:00,1,20864953,209801
OK,97,28,1022,97,2014-08-02T08:30:00,4,20865402,209801
OK,97,28,1022,97,2014-08-02T08:35:00,5,20865851,209801
OK,90,30,1022,90,2014-08-02T08:40:00,3,20866300,209801
OK,129,21,1022,129,2014-08-02T08:45:00,2,20866749,209801
OK,90,30,1022,90,2014-08-02T08:50:00,0,20867198,209801
OK,90,30,1022,90,2014-08-02T08:55:00,0,20867647,209801
OK,123,22,1022,123,2014-08-02T09:00:00,1,20868096,209801
OK,123,22,1022,123,2014-08-02T09:05:00,3,20868545,209801
OK,103,27,1022,103,2014-08-02T09:10:00,4,20868994,209801
OK,108,25,1022,108,2014-08-02T09:15:00,5,20869443,209801
OK,109,25,1022,109,2014-08-02T09:20:00,6,20869892,209801
OK,104,26,1022,104,2014-08-02T09:25:00,2,20870341,209801
OK,76,36,1022,76,2014-08-02T09:30:00,1,20870790,209801
OK,118,23,1022,118,2014-08-02T09:35:00,1,20871239,209801
OK,109,25,1022,109,2014-08-02T09:40:00,2,20871688,209801
OK,85,32,1022,85,2014-08-02T09:45:00,3,20872137,209801
OK,81,34,1022,81,2014-08-02T09:50:00,2,20872586,209801
OK,89,31,1022,89,2014-08-02T09:55:00,1,20873035,209801
OK,122,22,1022,122,2014-08-02T10:00:00,1,20873484,209801
OK,128,21,1022,128,2014-08-02T10:05:00,2,20873933,209801
OK,113,24,1022,113,2014-08-02T10:10:00,4,20874382,209801
OK,106,26,1022,106,2014-08-02T10:15:00,3,20874831,209801
OK,84,33,1022,84,2014-08-02T10:20:00,1,20875280,209801
OK,105,26,1022,105,2014-08-02T10:25:00,4,20875729,209801
OK,105,26,1022,105,2014-08-02T10:30:00,4,20876178,209801
OK,84,33,1022,84,2014-08-02T10:35:00,5,20876627,209801
OK,84,33,1022,84,2014-08-02T10:40:00,5,20877076,209801
OK,61,45,1022,61,2014-08-02T10:45:00,1,20877525,209801
OK,85,32,1022,85,2014-08-02T10:50:00,2,20877974,209801
OK,68,40,1022,68,2014-08-02T10:55:00,1,20878423,209801
OK,78,35,1022,78,2014-08-02T11:00:00,1,20878872,209801
OK,78,35,1022,78,2014-08-02T11:05:00,1,20879321,209801
OK,78,35,1022,78,2014-08-02T11:10:00,0,20879770,209801
OK,78,35,1022,78,2014-08-02T11:15:00,0,20880219,209801
OK,119,23,1022,119,2014-08-02T11:20:00,1,20880668,209801
OK,102,27,1022,102,2014-08-02T11:25:00,3,20881117,209801
OK,102,27,1022,102,2014-08-02T11:30:00,1,20881566,209801
OK,110,25,1022,110,2014-08-02T11:35:00,1,20882015,209801
OK,110,25,1022,110,2014-08-02T11:40:00,1,20882464,209801
OK,110,25,1022,110,2014-08-02T11:45:00,0,20882913,209801
OK,166,16,1022,166,2014-08-02T11:50:00,1,20883362,209801
OK,166,16,1022,166,2014-08-02T11:55:00,1,20883811,209801
OK,166,16,1022,166,2014-08-02T12:00:00,0,20884260,209801
OK,166,16,1022,166,2014-08-02T12:05:00,0,20884709,209801
OK,166,16,1022,166,2014-08-02T12:10:00,0,20885158,209801
OK,90,30,1022,90,2014-08-02T12:15:00,3,20885607,209801
OK,94,29,1022,94,2014-08-02T12:20:00,2,20886056,209801
OK,56,49,1022,56,2014-08-02T12:25:00,1,20886505,209801
OK,75,37,1022,75,2014-08-02T12:30:00,3,20886954,209801
OK,77,36,1022,77,2014-08-02T12:35:00,2,20887403,209801
OK,79,35,1022,79,2014-08-02T12:40:00,0,20887852,209801
OK,109,25,1022,109,2014-08-02T12:45:00,1,20888301,209801
OK,98,28,1022,98,2014-08-02T12:50:00,2,20888750,209801
OK,88,31,1022,88,2014-08-02T12:55:00,1,20889199,209801
OK,88,31,1022,88,2014-08-02T13:00:00,0,20889648,209801
OK,107,26,1022,107,2014-08-02T13:05:00,1,20890097,209801
OK,81,34,1022,81,2014-08-02T13:10:00,1,20890546,209801
OK,81,34,1022,81,2014-08-02T13:15:00,1,20890995,209801
OK,81,34,1022,81,2014-08-02T13:20:00,0,20891444,209801
OK,81,34,1022,81,2014-08-02T13:25:00,0,20891893,209801
OK,85,32,1022,85,2014-08-02T13:30:00,1,20892342,209801
OK,104,26,1022,104,2014-08-02T13:35:00,3,20892791,209801
OK,118,23,1022,118,2014-08-02T13:40:00,4,20893240,209801
OK,129,21,1022,129,2014-08-02T13:45:00,3,20893689,209801
OK,130,21,1022,130,2014-08-02T13:50:00,0,20894138,209801
OK,81,34,1022,81,2014-08-02T13:55:00,2,20894587,209801
OK,123,22,1022,123,2014-08-02T14:00:00,3,20895036,209801
OK,123,22,1022,123,2014-08-02T14:05:00,3,20895485,209801
OK,106,26,1022,106,2014-08-02T14:10:00,0,20895934,209801
OK,80,34,1022,80,2014-08-02T14:15:00,1,20896383,209801
OK,80,34,1022,80,2014-08-02T14:20:00,1,20896832,209801
OK,145,19,1022,145,2014-08-02T14:25:00,1,20897281,209801
OK,145,19,1022,145,2014-08-02T14:30:00,0,20897730,209801
OK,145,19,1022,145,2014-08-02T14:35:00,0,20898179,209801
OK,83,33,1022,83,2014-08-02T14:40:00,1,20898628,209801
OK,83,33,1022,83,2014-08-02T14:45:00,2,20899077,209801
OK,100,27,1022,100,2014-08-02T14:50:00,3,20899526,209801
OK,100,27,1022,100,2014-08-02T14:55:00,1,20899975,209801
OK,66,42,1022,66,2014-08-02T15:00:00,2,20900424,209801
OK,66,42,1022,66,2014-08-02T15:05:00,4,20900873,209801
OK,76,36,1022,76,2014-08-02T15:10:00,1,20901322,209801
OK,108,25,1022,108,2014-08-02T15:15:00,3,20901771,209801
OK,108,25,1022,108,2014-08-02T15:20:00,3,20902220,209801
OK,108,25,1022,108,2014-08-02T15:25:00,0,20902669,209801
OK,108,25,1022,108,2014-08-02T15:30:00,0,20903118,209801
OK,86,32,1022,86,2014-08-02T15:35:00,3,20903567,209801
OK,87,31,1022,87,2014-08-02T15:40:00,2,20904016,209801
OK,93,29,1022,93,2014-08-02T15:45:00,2,20904465,209801
OK,96,28,1022,96,2014-08-02T15:50:00,2,20904914,209801
OK,97,28,1022,97,2014-08-02T15:55:00,1,20905363,209801
OK,97,28,1022,97,2014-08-02T16:00:00,0,20905812,209801
OK,90,30,1022,90,2014-08-02T16:05:00,0,20906261,209801
OK,73,38,1022,73,2014-08-02T16:10:00,1,20906710,209801
OK,81,34,1022,81,2014-08-02T16:15:00,2,20907159,209801
OK,89,31,1022,89,2014-08-02T16:20:00,1,20907608,209801
OK,71,39,1022,71,2014-08-02T16:25:00,1,20908057,209801
OK,65,42,1022,65,2014-08-02T16:30:00,2,20908506,209801
OK,52,53,1022,52,2014-08-02T16:35:00,2,20908955,209801
OK,45,61,1022,45,2014-08-02T16:40:00,0,20909404,209801
OK,112,24,1022,112,2014-08-02T16:45:00,1,20909853,209801
OK,102,27,1022,102,2014-08-02T16:50:00,2,20910302,209801
OK,92,30,1022,92,2014-08-02T16:55:00,1,20910751,209801
OK,92,30,1022,92,2014-08-02T17:00:00,0,20911200,209801
OK,92,30,1022,92,2014-08-02T17:05:00,0,20911649,209801
OK,113,24,1022,113,2014-08-02T17:10:00,1,20912098,209801
OK,113,24,1022,113,2014-08-02T17:15:00,1,20912547,209801
OK,86,32,1022,86,2014-08-02T17:20:00,1,20912996,209801
OK,105,26,1022,105,2014-08-02T17:25:00,2,20913445,209801
OK,125,22,1022,125,2014-08-02T17:30:00,1,20913894,209801
OK,125,22,1022,125,2014-08-02T17:35:00,0,20914343,209801
OK,125,22,1022,125,2014-08-02T17:40:00,0,20914792,209801
OK,125,22,1022,125,2014-08-02T17:45:00,0,20915241,209801
OK,125,22,1022,125,2014-08-02T17:50:00,0,20915690,209801
OK,125,22,1022,125,2014-08-02T17:55:00,0,20916139,209801
OK,125,22,1022,125,2014-08-02T18:00:00,0,20916588,209801
OK,125,22,1022,125,2014-08-02T18:05:00,0,20917037,209801
OK,125,22,1022,125,2014-08-02T18:10:00,0,20917486,209801
OK,125,22,1022,125,2014-08-02T18:15:00,0,20917935,209801
OK,125,22,1022,125,2014-08-02T18:20:00,0,20918384,209801
OK,112,24,1022,112,2014-08-02T18:25:00,1,20918833,209801
OK,87,31,1022,87,2014-08-02T18:30:00,3,20919282,209801
OK,79,35,1022,79,2014-08-02T18:35:00,3,20919731,209801
OK,92,30,1022,92,2014-08-02T18:40:00,2,20920180,209801
OK,92,30,1022,92,2014-08-02T18:45:00,2,20920629,209801
OK,72,38,1022,72,2014-08-02T18:50:00,0,20921078,209801
OK,91,30,1022,91,2014-08-02T18:55:00,1,20921527,209801
OK,86,32,1022,86,2014-08-02T19:00:00,2,20921976,209801
OK,81,34,1022,81,2014-08-02T19:05:00,0,20922425,209801
OK,109,25,1022,109,2014-08-02T19:10:00,1,20922874,209801
OK,109,25,1022,109,2014-08-02T19:15:00,0,20923323,209801
OK,58,47,1022,58,2014-08-02T19:20:00,1,20923772,209801
OK,58,47,1022,58,2014-08-02T19:25:00,1,20924221,209801
OK,58,47,1022,58,2014-08-02T19:30:00,0,20924670,209801
OK,58,47,1022,58,2014-08-02T19:35:00,0,20925119,209801
OK,58,47,1022,58,2014-08-02T19:40:00,0,20925568,209801
OK,58,47,1022,58,2014-08-02T19:45:00,0,20926017,209801
OK,122,22,1022,122,2014-08-02T19:50:00,1,20926466,209801
OK,122,22,1022,122,2014-08-02T19:55:00,1,20926915,209801
OK,122,22,1022,122,2014-08-02T20:00:00,0,20927364,209801
OK,106,26,1022,106,2014-08-02T20:05:00,1,20927813,209801
OK,97,28,1022,97,2014-08-02T20:10:00,2,20928262,209801
OK,91,30,1022,91,2014-08-02T20:15:00,1,20928711,209801
OK,62,44,1022,62,2014-08-02T20:20:00,2,20929160,209801
OK,62,44,1022,62,2014-08-02T20:25:00,2,20929609,209801
OK,79,35,1022,79,2014-08-02T20:30:00,0,20930058,209801
OK,79,35,1022,79,2014-08-02T20:35:00,0,20930507,209801
OK,79,35,1022,79,2014-08-02T20:40:00,0,20930956,209801
OK,110,25,1022,110,2014-08-02T20:45:00,1,20931405,209801
OK,110,25,1022,110,2014-08-02T20:50:00,1,20931854,209801
OK,110,25,1022,110,2014-08-02T20:55:00,0,20932303,209801
OK,110,25,1022,110,2014-08-02T21:00:00,0,20932752,209801
OK,110,25,1022,110,2014-08-02T21:05:00,0,20933201,209801
OK,110,25,1022,110,2014-08-02T21:10:00,0,20933650,209801
OK,110,25,1022,110,2014-08-02T21:15:00,0,20934099,209801
OK,92,30,1022,92,2014-08-02T21:20:00,1,20934548,209801
OK,90,30,1022,90,2014-08-02T21:25:00,2,20934997,209801
OK,88,31,1022,88,2014-08-02T21:30:00,1,20935446,209801
OK,88,31,1022,88,2014-08-02T21:35:00,0,20935895,209801
OK,88,31,1022,88,2014-08-02T21:40:00,0,20936344,209801
OK,88,31,1022,88,2014-08-02T21:45:00,0,20936793,209801
OK,88,31,1022,88,2014-08-02T21:50:00,0,20937242,209801
OK,88,31,1022,88,2014-08-02T21:55:00,0,20937691,209801
OK,88,31,1022,88,2014-08-02T22:00:00,0,20938140,209801
OK,88,31,1022,88,2014-08-02T22:05:00,0,20938589,209801
OK,88,31,1022,88,2014-08-02T22:10:00,0,20939038,209801
OK,84,33,1022,84,2014-08-02T22:15:00,1,20939487,209801
OK,84,33,1022,84,2014-08-02T22:20:00,0,20939936,209801
OK,84,33,1022,84,2014-08-02T22:25:00,0,20940385,209801
OK,84,33,1022,84,2014-08-02T22:30:00,0,20940834,209801
OK,84,33,1022,84,2014-08-02T22:35:00,0,20941283,209801
OK,84,33,1022,84,2014-08-02T22:40:00,0,20941732,209801
OK,84,33,1022,84,2014-08-02T22:45:00,0,20942181,209801
OK,84,33,1022,84,2014-08-02T22:50:00,0,20942630,209801
OK,84,33,1022,84,2014-08-02T22:55:00,0,20943079,209801
OK,84,33,1022,84,2014-08-02T23:00:00,0,20943528,209801
OK,84,33,1022,84,2014-08-02T23:10:00,0,20943977,209801
OK,84,33,1022,84,2014-08-02T23:15:00,0,20944426,209801
OK,84,33,1022,84,2014-08-02T23:20:00,0,20944875,209801
OK,84,33,1022,84,2014-08-02T23:25:00,0,20945324,209801
OK,84,33,1022,84,2014-08-02T23:30:00,0,20945773,209801
OK,84,33,1022,84,2014-08-02T23:35:00,0,20946222,209801
OK,84,33,1022,84,2014-08-02T23:40:00,0,20946671,209801
OK,84,33,1022,84,2014-08-02T23:45:00,0,20947120,209801
OK,84,33,1022,84,2014-08-02T23:50:00,0,20947569,209801
OK,84,33,1022,84,2014-08-02T23:55:00,0,20948018,209801
OK,116,23,1022,116,2014-08-03T00:00:00,1,20948467,209801
OK,116,23,1022,116,2014-08-03T00:05:00,0,20948916,209801
OK,112,24,1022,112,2014-08-03T00:10:00,1,20949364,209801
OK,112,24,1022,112,2014-08-03T00:15:00,0,20949813,209801
OK,112,24,1022,112,2014-08-03T00:20:00,0,20950262,209801
OK,112,24,1022,112,2014-08-03T00:25:00,0,20950711,209801
OK,112,24,1022,112,2014-08-03T00:30:00,0,20951160,209801
OK,126,22,1022,126,2014-08-03T00:35:00,1,20951609,209801
OK,126,22,1022,126,2014-08-03T00:40:00,0,20952058,209801
OK,126,22,1022,126,2014-08-03T00:45:00,0,20952507,209801
OK,126,22,1022,126,2014-08-03T00:50:00,0,20952956,209801
OK,92,30,1022,92,2014-08-03T00:55:00,1,20953405,209801
OK,92,30,1022,92,2014-08-03T01:00:00,0,20953854,209801
OK,92,30,1022,92,2014-08-03T01:05:00,0,20954303,209801
OK,92,30,1022,92,2014-08-03T01:10:00,0,20954752,209801
OK,92,30,1022,92,2014-08-03T01:15:00,0,20955201,209801
OK,92,30,1022,92,2014-08-03T01:20:00,0,20955650,209801
OK,92,30,1022,92,2014-08-03T01:25:00,0,20956099,209801
OK,92,30,1022,92,2014-08-03T01:30:00,0,20956548,209801
OK,92,30,1022,92,2014-08-03T01:35:00,0,20956997,209801
OK,92,30,1022,92,2014-08-03T01:40:00,0,20957446,209801
OK,92,30,1022,92,2014-08-03T01:45:00,0,20957895,209801
OK,92,30,1022,92,2014-08-03T01:50:00,0,20958344,209801
OK,92,30,1022,92,2014-08-03T01:55:00,0,20958793,209801
OK,92,30,1022,92,2014-08-03T02:00:00,0,20959242,209801
OK,92,30,1022,92,2014-08-03T02:05:00,0,20959691,209801
OK,92,30,1022,92,2014-08-03T02:10:00,0,20960140,209801
OK,92,30,1022,92,2014-08-03T02:15:00,0,20960589,209801
OK,92,30,1022,92,2014-08-03T02:20:00,0,20961038,209801